Flag for Brazil Weather past 2 weeks in Florianópolis, Santa Catarina, Brazil

Now
68 °F

Passing clouds.


Feels Like: 68 °F
Forecast: N/A
Wind: 21 mph from South

Location: Florianopolis Aeroporto

Current Time: Oct 1, 2014 at 8:09:16 PM

Latest Report: Oct 1, 2014 at 7:00 PM


Visibility: N/A

Pressure: 30.09 "Hg

Humidity: 60%

Dew point: 54 °F

Location of FlorianópolisLocation

Historic Weather in Florianópolis — Graph

°F

Florianópolis temperature yesterday

Maximum temperature yesterday: 70 °F (at 12:00 AM)
Minimum temperature yesterday: 32 °F (at 2:00 PM)
Average temperature yesterday: 66 °F

Past Weeks' High & Low Weather Summary

 TemperatureHumidityPressure
High79 °F (Sep 26, 12:00 PM)100% (Sep 18, 12:00 PM)30.21 "Hg (Sep 18, 12:00 PM)
Low32 °F (Sep 30, 2:00 PM)28% (Sep 28, 6:00 PM)29.77 "Hg (Sep 19, 3:00 PM)
Average67 °F79%30.00 "Hg
* Reported Sep 16 7:00 PM — Oct 1 7:00 PM, Florianópolis, Weather by CustomWeather, © 2014

Note: Actual official high and low records may vary slightly from our data, if they occured in-between our weather recording intervals... More about our weather records

Advertising

Florianópolis weather history for previous 24 hours

 ConditionsComfort  
Time TempWeatherWind HumidityBarometerVisibility
7:00 PM
Oct 1
68 °FPassing clouds.21 mph60%30.09 "HgN/A
6:00 PM68 °FPassing clouds.23 mph69%30.07 "HgN/A
5:00 PM72 °FPassing clouds.18 mph61%30.04 "HgN/A
4:00 PM73 °FPassing clouds.17 mph57%30.01 "HgN/A
3:00 PM73 °FScattered clouds.23 mph61%29.98 "HgN/A
2:00 PM73 °FPartly sunny.23 mph65%29.98 "HgN/A
1:00 PM75 °FPartly sunny.25 mph61%29.92 "HgN/A
12:00 PM75 °FScattered clouds.16 mph69%29.92 "HgN/A
11:00 AM77 °FPassing clouds.17 mph69%29.92 "HgN/A
10:00 AM79 °FPassing clouds.8 mph58%29.89 "HgN/A
9:00 AM73 °FPassing clouds.3 mph78%29.89 "HgN/A
8:00 AM70 °FPassing clouds.6 mph83%29.89 "HgN/A
7:00 AM68 °FScattered clouds.6 mph88%29.83 "HgN/A
6:00 AM68 °FPartly sunny.9 mph88%29.83 "HgN/A
5:00 AM68 °FPartly sunny.7 mph88%29.80 "HgN/A
4:00 AM68 °FLight rain. Passing clouds.16 mph88%29.80 "HgN/A
3:00 AM66 °FThunderstorms. Passing clouds.8 mph94%29.80 "Hg3 mi
2:00 AM68 °FStrong thunderstorms. Passing clouds.6 mph88%29.92 "Hg2 mi
1:00 AM68 °FPassing clouds.1 mph88%29.86 "HgN/A
12:00 AM70 °FPassing clouds.2 mph83%29.86 "HgN/A
11:00 PM
Sep 30
68 °FPassing clouds.8 mph88%29.89 "HgN/A
10:00 PM68 °FPassing clouds.10 mph88%29.89 "HgN/A
9:00 PM68 °FPassing clouds.10 mph88%29.89 "HgN/A
8:00 PM68 °FPassing clouds.10 mph88%29.86 "HgN/A
Weather by CustomWeather, © 2014

See weather overviewHow to use our weather pages